Tracking 25953 objects as of 15-Aug-2022
HD Live streaming from Space Station
objects crossing your sky now

YAOGAN-30 U

Track YAOGAN-30 U now!
10-day predictions


NORAD ID: 46807
Int'l Code: 2020-076A
Perigee: 602.6 km
Apogee: 603.6 km
Inclination: 35.0 °
Period: 96.6 minutes
Semi major axis: 6974 km
RCS: Unknown
Launch date: October 26, 2020
Source: People's Republic of China (PRC)
Launch site: Xichang Space Center, China (XSC)
aabbcc
Your satellite tracking list
Your tracking list is empty




NASA's NSSDC Master Catalog

Two Line Element Set (TLE):
1 46807U 20076A   22227.08342167  .00001057  00000-0  10859-3 0  9995
2 46807  34.9980 272.2047 0000699 219.6545 140.4114 14.90630410 98112
Source of the keplerian elements: AFSPC